QPF
0.00 0.00 0.00 0.00 0.00 0.00 0.00 0.01 0.01 0.01 0.01 0.00 0.01 0.02 0.03 0.02 0.01 0.04 0.05 0.05 0.06 0.08 0.10 0.10 0.06 0.06 0.05 0.05 0.07 0.09 0.05 0.07 0.08 0.06 0.04 0.04 0.06 0.05 0.05 0.06 0.08 0.10 0.12
0.00 0.00 0.00 0.00 0.00 0.00 0.00 0.00 0.00 0.01 0.01 0.02 0.01 0.03 0.03 0.02 0.02 0.04 0.04 0.03 0.05 0.06 0.11 0.10 0.08 0.07 0.07 0.05 0.11 0.15 0.09 0.07 0.06 0.07 0.07 0.06 0.07 0.07 0.06 0.05 0.07 0.08 0.07
0.00 0.00 0.00 0.00 0.00 0.00 0.00 0.00 0.00 0.01 0.02 0.02 0.02 0.03 0.03 0.03 0.02 0.03 0.03 0.04 0.04 0.04 0.09 0.09 0.09 0.10 0.07 0.05 0.08 0.16 0.10 0.06 0.07 0.10 0.12 0.10 0.08 0.06 0.05 0.04 0.06 0.08 0.08
0.00 0.00 0.00 0.00 0.00 0.00 0.00 0.00 0.01 0.02 0.03 0.02 0.01 0.02 0.02 0.02 0.03 0.02 0.03 0.03 0.04 0.03 0.04 0.06 0.08 0.09 0.08 0.07 0.08 0.15 0.11 0.06 0.07 0.11 0.14 0.13 0.10 0.07 0.04 0.04 0.05 0.07 0.07
0.00 0.00 0.00 0.00 0.00 0.00 0.01 0.00 0.01 0.02 0.01 0.02 0.01 0.01 0.01 0.01 0.03 0.03 0.02 0.02 0.02 0.02 0.03 0.03 0.05 0.07 0.09 0.09 0.09 0.11 0.11 0.08 0.07 0.09 0.10 0.12 0.12 0.10 0.06 0.05 0.07 0.08 0.07
0.00 0.00 0.00 0.00 0.00 0.01 0.02 0.00 0.01 0.01 0.01 0.02 0.01 0.01 0.01 0.01 0.01 0.02 0.02 0.02 0.02 0.02 0.03 0.03 0.05 0.06 0.07 0.07 0.09 0.11 0.10 0.08 0.07 0.06 0.07 0.08 0.10 0.11 0.08 0.07 0.09 0.10 0.09
0.00 0.00 0.00 0.00 0.01 0.01 0.01 0.00 0.01 0.01 0.00 0.01 0.01 0.01 0.01 0.02 0.02 0.02 0.01 0.01 0.02 0.02 0.02 0.02 0.03 0.05 0.04 0.04 0.08 0.08 0.07 0.08 0.06 0.05 0.06 0.08 0.09 0.11 0.09 0.10 0.11 0.16 0.13
0.00 0.00 0.00 0.00 0.00 0.01 0.00 0.01 0.02 0.02 0.01 0.01 0.02 0.01 0.02 0.02 0.02 0.02 0.01 0.01 0.02 0.02 0.02 0.02 0.01 0.02 0.03 0.04 0.05 0.06 0.05 0.07 0.08 0.07 0.06 0.07 0.07 0.10 0.12 0.15 0.18 0.24 0.22
0.00 0.00 0.00 0.00 0.00 0.00 0.01 0.01 0.01 0.02 0.01 0.01 0.01 0.02 0.02 0.02 0.02 0.02 0.02 0.01 0.02 0.03 0.03 0.02 0.01 0.02 0.02 0.03 0.04 0.03 0.05 0.08 0.09 0.08 0.07 0.07 0.10 0.11 0.13 0.14 0.14 0.20 0.28
0.00 0.00 0.00 0.00 0.00 0.00 0.00 0.01 0.00 0.01 0.01 0.01 0.01 0.01 0.01 0.01 0.01 0.02 0.02 0.03 0.02 0.03 0.03 0.02 0.02 0.02 0.02 0.02 0.02 0.02 0.02 0.05 0.06 0.06 0.06 0.07 0.12 0.12 0.14 0.19 0.16 0.16 0.23
0.00 0.00 0.00 0.00 0.00 0.00 0.00 0.00 0.00 0.00 0.01 0.01 0.01 0.01 0.00 0.01 0.03 0.04 0.03 0.03 0.02 0.02 0.03 0.03 0.03 0.04 0.03 0.03 0.02 0.02 0.02 0.02 0.03 0.04 0.05 0.08 0.11 0.13 0.13 0.22 0.29 0.21 0.18
0.00 0.00 0.00 0.00 0.00 0.00 0.00 0.00 0.00 0.00 0.00 0.00 0.00 0.00 0.01 0.02 0.03 0.02 0.02 0.02 0.02 0.02 0.03 0.03 0.03 0.03 0.03 0.03 0.02 0.03 0.03 0.03 0.04 0.04 0.04 0.06 0.08 0.12 0.11 0.18 0.33 0.40 0.29
0.00 0.00 0.00 0.00 0.00 0.00 0.00 0.00 0.00 0.00 0.01 0.01 0.01 0.01 0.02 0.03 0.02 0.01 0.01 0.01 0.02 0.02 0.03 0.03 0.03 0.03 0.02 0.02 0.02 0.01 0.03 0.03 0.03 0.03 0.03 0.03 0.04 0.06 0.07 0.11 0.19 0.32 0.37
0.00 0.00 0.00 0.00 0.00 0.00 0.00 0.00 0.01 0.01 0.01 0.01 0.01 0.01 0.01 0.01 0.01 0.01 0.01 0.01 0.01 0.02 0.02 0.03 0.02 0.03 0.03 0.02 0.01 0.01 0.04 0.05 0.03 0.02 0.01 0.01 0.02 0.03 0.03 0.05 0.08 0.12 0.23
0.00 0.00 0.00 0.00 0.00 0.00 0.00 0.00 0.01 0.01 0.01 0.01 0.01 0.01 0.00 0.00 0.01 0.01 0.01 0.01 0.01 0.01 0.02 0.01 0.01 0.01 0.02 0.03 0.02 0.02 0.03 0.05 0.06 0.04 0.02 0.01 0.01 0.02 0.03 0.04 0.05 0.06 0.09
0.00 0.00 0.00 0.00 0.00 0.00 0.00 0.00 0.01 0.01 0.01 0.02 0.01 0.01 0.00 0.00 0.01 0.01 0.01 0.01 0.02 0.02 0.02 0.01 0.01 0.01 0.01 0.01 0.01 0.02 0.02 0.02 0.05 0.09 0.08 0.04 0.03 0.02 0.03 0.03 0.03 0.04 0.05
0.00 0.00 0.00 0.00 0.00 0.00 0.00 0.00 0.01 0.02 0.01 0.02 0.02 0.01 0.01 0.01 0.00 0.00 0.00 0.01 0.01 0.02 0.02 0.01 0.01 0.01 0.01 0.01 0.01 0.01 0.01 0.01 0.02 0.05 0.11 0.09 0.04 0.02 0.02 0.02 0.02 0.03 0.04
0.00 0.00 0.00 0.00 0.00 0.00 0.00 0.00 0.01 0.02 0.02 0.02 0.02 0.01 0.00 0.00 0.00 0.00 0.00 0.00 0.00 0.01 0.01 0.00 0.00 0.00 0.01 0.01 0.01 0.00 0.00 0.00 0.01 0.01 0.03 0.05 0.04 0.02 0.02 0.02 0.02 0.02 0.02
0.00 0.00 0.00 0.00 0.00 0.00 0.00 0.00 0.01 0.01 0.02 0.02 0.01 0.00 0.00 0.00 0.00 0.00 0.00 0.00 0.00 0.00 0.01 0.01 0.00 0.00 0.01 0.01 0.01 0.01 0.00 0.00 0.00 0.00 0.00 0.01 0.02 0.01 0.01 0.01 0.01 0.01 0.01
0.00 0.00 0.00 0.00 0.00 0.00 0.00 0.00 0.00 0.01 0.01 0.00 0.00 0.00 0.00 0.00 0.00 0.00 0.00 0.00 0.00 0.00 0.01 0.01 0.00 0.00 0.00 0.00 0.00 0.00 0.00 0.00 0.00 0.00 0.00 0.00 0.00 0.00 0.00 0.00 0.01 0.01 0.01
0.00 0.00 0.00 0.00 0.00 0.00 0.00 0.00 0.00 0.01 0.00 0.00 0.00 0.00 0.00 0.00 0.00 0.00 0.00 0.00 0.00 0.00 0.01 0.01 0.00 0.00 0.00 0.00 0.00 0.00 0.00 0.00 0.00 0.00 0.00 0.00 0.00 0.00 0.00 0.00 0.00 0.00 0.00
0.01 0.01 0.00 0.00 0.00 0.00 0.00 0.00 0.00 0.00 0.00 0.00 0.00 0.00 0.00 0.00 0.00 0.00 0.00 0.00 0.00 0.00 0.00 0.01 0.00 0.00 0.00 0.00 0.00 0.00 0.00 0.00 0.00 0.00 0.00 0.00 0.00 0.00 0.00 0.00 0.00 0.00 0.00
0.00 0.00 0.00 0.00 0.00 0.00 0.00 0.00 0.00 0.00 0.00 0.00 0.00 0.00 0.00 0.00 0.00 0.00 0.00 0.00 0.00 0.00 0.00 0.00 0.00 0.00 0.00 0.00 0.00 0.00 0.00 0.00 0.00 0.00 0.00 0.00 0.00 0.00 0.00 0.00 0.00 0.00 0.00
0.00 0.00 0.00 0.00 0.00 0.00 0.00 0.00 0.00 0.00 0.00 0.00 0.00 0.00 0.00 0.00 0.00 0.00 0.00 0.00 0.00 0.00 0.00 0.00 0.00 0.00 0.00 0.00 0.00 0.00 0.00 0.00 0.00 0.00 0.00 0.00 0.00 0.00 0.00 0.00 0.00 0.00 0.00
0.00 0.00 0.00 0.00 0.00 0.00 0.00 0.00 0.00 0.00 0.00 0.00 0.00 0.00 0.00 0.00 0.00 0.00 0.00 0.00 0.01 0.00 0.00 0.00 0.00 0.00 0.00 0.00 0.00 0.00 0.00 0.00 0.00 0.00 0.00 0.00 0.00 0.00 0.00 0.00 0.00 0.00 0.00
0.00 0.00 0.00 0.00 0.00 0.00 0.00 0.00 0.00 0.00 0.00 0.00 0.00 0.00 0.00 0.00 0.00 0.00 0.00 0.00 0.00 0.00 0.00 0.00 0.00 0.00 0.00 0.00 0.00 0.00 0.00 0.00 0.00 0.00 0.00 0.00 0.00 0.00 0.00 0.00 0.00 0.00 0.00
MSLP
1017.77 1017.59 1017.37 1017.13 1016.89 1016.67 1016.49 1016.37 1016.29 1016.26 1016.25 1016.25 1016.23 1016.21 1016.17 1016.12 1016.09 1016.07 1016.08 1016.11 1016.13 1016.12 1016.06 1015.91 1015.66 1015.30 1014.83 1014.28 1013.66 1013.02 1012.40 1011.84 1011.38 1011.06 1010.91 1010.93 1011.13 1011.48 1011.95 1012.49 1013.05 1013.59 1014.07
1018.07 1017.88 1017.67 1017.46 1017.25 1017.07 1016.93 1016.85 1016.81 1016.81 1016.84 1016.86 1016.87 1016.86 1016.83 1016.78 1016.73 1016.68 1016.65 1016.62 1016.58 1016.52 1016.41 1016.24 1015.99 1015.66 1015.25 1014.78 1014.26 1013.73 1013.22 1012.76 1012.39 1012.15 1012.04 1012.07 1012.26 1012.56 1012.97 1013.42 1013.89 1014.32 1014.71
1018.41 1018.23 1018.03 1017.84 1017.66 1017.52 1017.43 1017.38 1017.38 1017.42 1017.47 1017.53 1017.57 1017.58 1017.57 1017.52 1017.46 1017.39 1017.31 1017.23 1017.13 1017.01 1016.85 1016.65 1016.39 1016.08 1015.72 1015.31 1014.89 1014.46 1014.06 1013.71 1013.43 1013.25 1013.19 1013.24 1013.41 1013.68 1014.02 1014.40 1014.78 1015.13 1015.42
1018.80 1018.61 1018.43 1018.26 1018.11 1018.00 1017.93 1017.91 1017.94 1018.00 1018.09 1018.17 1018.24 1018.28 1018.29 1018.27 1018.21 1018.14 1018.03 1017.91 1017.76 1017.59 1017.39 1017.15 1016.87 1016.56 1016.23 1015.88 1015.52 1015.18 1014.87 1014.60 1014.40 1014.28 1014.25 1014.31 1014.47 1014.71 1015.00 1015.32 1015.63 1015.91 1016.14
1019.21 1019.03 1018.86 1018.70 1018.57 1018.47 1018.42 1018.41 1018.44 1018.51 1018.61 1018.71 1018.80 1018.87 1018.92 1018.93 1018.90 1018.84 1018.74 1018.61 1018.44 1018.23 1017.99 1017.72 1017.42 1017.11 1016.79 1016.47 1016.16 1015.87 1015.62 1015.40 1015.25 1015.16 1015.14 1015.20 1015.34 1015.55 1015.80 1016.07 1016.34 1016.57 1016.76
1019.65 1019.48 1019.32 1019.17 1019.04 1018.94 1018.88 1018.85 1018.87 1018.92 1019.01 1019.10 1019.21 1019.31 1019.40 1019.45 1019.47 1019.45 1019.38 1019.26 1019.10 1018.89 1018.63 1018.35 1018.04 1017.72 1017.40 1017.10 1016.81 1016.54 1016.32 1016.12 1015.98 1015.89 1015.87 1015.90 1016.01 1016.17 1016.38 1016.61 1016.85 1017.06 1017.24
1020.08 1019.93 1019.79 1019.65 1019.52 1019.40 1019.32 1019.26 1019.24 1019.25 1019.30 1019.38 1019.48 1019.60 1019.71 1019.81 1019.88 1019.92 1019.90 1019.83 1019.70 1019.51 1019.27 1019.00 1018.69 1018.38 1018.07 1017.77 1017.49 1017.23 1017.00 1016.80 1016.64 1016.52 1016.46 1016.45 1016.50 1016.61 1016.77 1016.96 1017.16 1017.36 1017.53
1020.50 1020.38 1020.26 1020.12 1019.99 1019.86 1019.74 1019.65 1019.58 1019.54 1019.54 1019.58 1019.66 1019.77 1019.90 1020.03 1020.15 1020.23 1020.27 1020.26 1020.19 1020.05 1019.85 1019.62 1019.34 1019.06 1018.76 1018.47 1018.20 1017.94 1017.69 1017.47 1017.28 1017.11 1016.99 1016.92 1016.90 1016.93 1017.03 1017.16 1017.32 1017.49 1017.66
1020.88 1020.79 1020.69 1020.58 1020.45 1020.32 1020.18 1020.04 1019.93 1019.84 1019.78 1019.78 1019.81 1019.89 1020.01 1020.15 1020.28 1020.41 1020.50 1020.54 1020.53 1020.46 1020.33 1020.15 1019.93 1019.69 1019.44 1019.18 1018.92 1018.66 1018.41 1018.17 1017.93 1017.71 1017.53 1017.38 1017.28 1017.23 1017.24 1017.30 1017.41 1017.54 1017.67
1021.18 1021.13 1021.07 1020.98 1020.87 1020.75 1020.60 1020.46 1020.31 1020.18 1020.08 1020.01 1020.00 1020.03 1020.11 1020.22 1020.35 1020.48 1020.60 1020.68 1020.72 1020.71 1020.66 1020.55 1020.41 1020.23 1020.04 1019.83 1019.61 1019.37 1019.13 1018.87 1018.61 1018.35 1018.11 1017.89 1017.71 1017.58 1017.50 1017.48 1017.51 1017.58 1017.67
1021.38 1021.37 1021.34 1021.30 1021.22 1021.13 1021.01 1020.87 1020.72 1020.57 1020.43 1020.33 1020.26 1020.23 1020.25 1020.31 1020.40 1020.50 1020.61 1020.71 1020.78 1020.82 1020.83 1020.79 1020.72 1020.63 1020.51 1020.36 1020.20 1020.01 1019.79 1019.55 1019.29 1019.01 1018.74 1018.47 1018.23 1018.02 1017.86 1017.76 1017.71 1017.70 1017.72
1021.46 1021.48 1021.50 1021.49 1021.47 1021.42 1021.35 1021.25 1021.12 1020.98 1020.84 1020.70 1020.58 1020.49 1020.45 1020.44 1020.46 1020.52 1020.59 1020.67 1020.74 1020.81 1020.85 1020.88 1020.88 1020.86 1020.81 1020.74 1020.64 1020.51 1020.35 1020.15 1019.91 1019.65 1019.37 1019.09 1018.81 1018.56 1018.34 1018.17 1018.03 1017.95 1017.89
1021.42 1021.47 1021.52 1021.56 1021.60 1021.61 1021.60 1021.55 1021.47 1021.37 1021.23 1021.09 1020.94 1020.80 1020.69 1020.61 1020.56 1020.55 1020.56 1020.60 1020.66 1020.72 1020.78 1020.84 1020.89 1020.92 1020.94 1020.93 1020.90 1020.84 1020.73 1020.59 1020.41 1020.19 1019.95 1019.68 1019.41 1019.15 1018.90 1018.68 1018.49 1018.34 1018.22
1021.28 1021.35 1021.43 1021.52 1021.61 1021.68 1021.73 1021.75 1021.73 1021.67 1021.57 1021.44 1021.28 1021.12 1020.96 1020.82 1020.70 1020.62 1020.57 1020.56 1020.57 1020.61 1020.67 1020.73 1020.80 1020.86 1020.92 1020.96 1020.98 1020.97 1020.93 1020.85 1020.74 1020.59 1020.40 1020.19 1019.96 1019.72 1019.48 1019.24 1019.03 1018.83 1018.66
1021.11 1021.19 1021.29 1021.41 1021.53 1021.65 1021.76 1021.84 1021.88 1021.87 1021.81 1021.70 1021.55 1021.38 1021.20 1021.02 1020.86 1020.72 1020.63 1020.56 1020.54 1020.54 1020.56 1020.61 1020.67 1020.73 1020.79 1020.85 1020.90 1020.93 1020.94 1020.92 1020.87 1020.79 1020.68 1020.54 1020.37 1020.18 1019.97 1019.77 1019.56 1019.36 1019.16
1020.96 1021.04 1021.15 1021.28 1021.43 1021.58 1021.71 1021.83 1021.90 1021.93 1021.90 1021.82 1021.70 1021.54 1021.36 1021.18 1021.00 1020.85 1020.72 1020.62 1020.56 1020.52 1020.51 1020.52 1020.54 1020.58 1020.62 1020.66 1020.71 1020.75 1020.79 1020.81 1020.82 1020.80 1020.75 1020.68 1020.58 1020.45 1020.31 1020.15 1019.98 1019.80 1019.63
1020.91 1020.99 1021.09 1021.22 1021.36 1021.50 1021.64 1021.75 1021.83 1021.87 1021.86 1021.80 1021.70 1021.57 1021.42 1021.25 1021.09 1020.94 1020.82 1020.71 1020.62 1020.56 1020.51 1020.47 1020.45 1020.44 1020.44 1020.45 1020.47 1020.50 1020.53 1020.57 1020.60 1020.62 1020.62 1020.60 1020.56 1020.49 1020.40 1020.30 1020.19 1020.07 1019.95
1021.00 1021.07 1021.16 1021.26 1021.38 1021.48 1021.58 1021.66 1021.71 1021.73 1021.71 1021.65 1021.57 1021.46 1021.34 1021.22 1021.10 1020.98 1020.88 1020.78 1020.69 1020.61 1020.53 1020.45 1020.38 1020.32 1020.26 1020.23 1020.21 1020.21 1020.22 1020.24 1020.27 1020.29 1020.31 1020.32 1020.31 1020.28 1020.24 1020.20 1020.15 1020.09 1020.04
1021.25 1021.31 1021.38 1021.44 1021.51 1021.56 1021.59 1021.60 1021.58 1021.55 1021.49 1021.41 1021.33 1021.24 1021.15 1021.07 1021.00 1020.93 1020.86 1020.79 1020.71 1020.62 1020.52 1020.41 1020.30 1020.19 1020.08 1020.00 1019.93 1019.89 1019.87 1019.86 1019.86 1019.87 1019.87 1019.87 1019.87 1019.85 1019.84 1019.83 1019.83 1019.84 1019.87
1021.65 1021.69 1021.72 1021.74 1021.75 1021.72 1021.67 1021.59 1021.49 1021.37 1021.25 1021.13 1021.03 1020.94 1020.88 1020.83 1020.80 1020.77 1020.74 1020.69 1020.63 1020.54 1020.42 1020.29 1020.14 1019.99 1019.85 1019.73 1019.62 1019.54 1019.49 1019.44 1019.41 1019.38 1019.35 1019.31 1019.28 1019.25 1019.23 1019.24 1019.27 1019.34 1019.44
1022.15 1022.16 1022.16 1022.13 1022.07 1021.97 1021.83 1021.65 1021.46 1021.25 1021.05 1020.87 1020.73 1020.63 1020.57 1020.53 1020.52 1020.52 1020.51 1020.48 1020.41 1020.32 1020.19 1020.03 1019.86 1019.68 1019.51 1019.36 1019.24 1019.14 1019.05 1018.98 1018.91 1018.84 1018.76 1018.68 1018.60 1018.53 1018.49 1018.49 1018.54 1018.64 1018.79
1022.69 1022.67 1022.63 1022.56 1022.45 1022.27 1022.05 1021.79 1021.50 1021.21 1020.94 1020.70 1020.51 1020.37 1020.28 1020.24 1020.22 1020.22 1020.20 1020.15 1020.07 1019.95 1019.79 1019.61 1019.41 1019.21 1019.03 1018.87 1018.73 1018.62 1018.53 1018.44 1018.34 1018.24 1018.12 1017.99 1017.86 1017.76 1017.68 1017.67 1017.71 1017.83 1018.02
1023.22 1023.17 1023.10 1022.99 1022.83 1022.61 1022.33 1022.00 1021.65 1021.29 1020.94 1020.64 1020.40 1020.21 1020.09 1020.01 1019.96 1019.91 1019.85 1019.76 1019.63 1019.46 1019.26 1019.03 1018.80 1018.57 1018.38 1018.21 1018.07 1017.97 1017.87 1017.78 1017.68 1017.55 1017.41 1017.25 1017.09 1016.95 1016.85 1016.81 1016.85 1016.98 1017.18
1023.72 1023.64 1023.54 1023.40 1023.21 1022.96 1022.65 1022.28 1021.89 1021.48 1021.09 1020.74 1020.45 1020.21 1020.03 1019.88 1019.77 1019.65 1019.51 1019.35 1019.14 1018.89 1018.61 1018.32 1018.04 1017.78 1017.56 1017.38 1017.25 1017.14 1017.06 1016.98 1016.88 1016.76 1016.61 1016.44 1016.28 1016.12 1016.01 1015.96 1016.00 1016.13 1016.33
1024.17 1024.05 1023.93 1023.78 1023.58 1023.32 1023.00 1022.62 1022.21 1021.79 1021.37 1020.98 1020.64 1020.35 1020.10 1019.88 1019.67 1019.46 1019.23 1018.95 1018.64 1018.29 1017.92 1017.55 1017.20 1016.89 1016.63 1016.42 1016.27 1016.17 1016.09 1016.02 1015.93 1015.83 1015.70 1015.55 1015.39 1015.26 1015.15 1015.12 1015.16 1015.28 1015.49
1024.57 1024.43 1024.29 1024.14 1023.94 1023.69 1023.37 1023.01 1022.60 1022.17 1021.73 1021.32 1020.93 1020.58 1020.26 1019.96 1019.66 1019.34 1018.99 1018.60 1018.17 1017.71 1017.23 1016.77 1016.33 1015.95 1015.63 1015.38 1015.20 1015.08 1014.99 1014.92 1014.85 1014.77 1014.66 1014.54 1014.42 1014.32 1014.25 1014.23 1014.29 1014.43 1014.63
Thickness
5731 5730 5729 5727 5727 5726 5726 5725 5726 5725 5725 5725 5724 5723 5723 5723 5724 5723 5721 5720 5722 5724 5726 5728 5730 5732 5734 5736 5738 5739 5742 5744 5746 5748 5750 5752 5753 5755 5757 5758 5759 5761 5761
5728 5728 5728 5725 5725 5724 5724 5724 5723 5722 5722 5721 5721 5719 5719 5720 5720 5720 5720 5719 5719 5720 5722 5724 5727 5729 5731 5733 5735 5737 5739 5741 5743 5745 5747 5748 5750 5752 5753 5755 5756 5757 5758
5727 5726 5726 5725 5723 5722 5722 5722 5722 5720 5719 5718 5717 5716 5716 5716 5717 5717 5717 5718 5718 5718 5719 5721 5723 5725 5727 5729 5732 5734 5738 5739 5740 5742 5744 5746 5747 5748 5750 5752 5753 5754 5756
5725 5723 5722 5722 5721 5720 5720 5719 5720 5718 5717 5716 5715 5714 5714 5713 5714 5714 5715 5715 5716 5717 5716 5716 5718 5721 5723 5726 5728 5731 5734 5735 5737 5739 5740 5742 5743 5745 5747 5749 5750 5751 5753
5723 5722 5720 5719 5719 5719 5718 5718 5717 5717 5714 5712 5712 5711 5711 5711 5710 5712 5713 5713 5713 5713 5714 5714 5715 5717 5719 5721 5723 5726 5728 5731 5733 5735 5736 5738 5739 5741 5744 5745 5747 5749 5750
5719 5719 5718 5717 5717 5716 5715 5715 5713 5712 5712 5711 5711 5709 5708 5709 5708 5708 5710 5710 5710 5711 5711 5712 5714 5714 5715 5717 5719 5721 5724 5726 5729 5730 5732 5733 5736 5738 5740 5742 5744 5746 5747
5716 5716 5717 5715 5714 5714 5713 5714 5712 5710 5710 5711 5709 5707 5706 5706 5706 5705 5707 5708 5708 5708 5709 5710 5711 5712 5714 5714 5715 5717 5720 5722 5725 5726 5728 5730 5732 5734 5736 5738 5742 5743 5743
5714 5715 5715 5714 5712 5711 5711 5711 5709 5710 5709 5709 5709 5706 5703 5702 5702 5703 5704 5704 5705 5705 5706 5707 5708 5709 5711 5712 5711 5712 5715 5718 5720 5722 5724 5726 5728 5729 5731 5734 5736 5737 5738
5711 5712 5712 5712 5710 5711 5710 5708 5708 5707 5706 5707 5709 5708 5704 5700 5699 5700 5701 5702 5702 5702 5703 5704 5705 5706 5708 5708 5708 5708 5710 5713 5716 5718 5720 5722 5723 5725 5726 5729 5730 5732 5733
5709 5709 5709 5709 5709 5709 5707 5708 5707 5707 5705 5706 5706 5706 5707 5705 5702 5698 5698 5699 5699 5699 5700 5701 5701 5701 5703 5704 5703 5703 5705 5707 5710 5712 5714 5716 5718 5720 5722 5724 5725 5727 5729
5707 5707 5707 5707 5707 5706 5705 5704 5704 5705 5705 5705 5705 5705 5704 5703 5705 5701 5696 5696 5697 5697 5697 5697 5697 5698 5698 5699 5699 5698 5700 5702 5704 5707 5709 5711 5713 5715 5717 5718 5719 5722 5725
5707 5705 5705 5705 5704 5704 5703 5702 5702 5701 5702 5702 5703 5703 5703 5702 5700 5700 5698 5695 5695 5695 5695 5694 5694 5694 5694 5695 5695 5694 5696 5697 5700 5701 5703 5705 5707 5709 5711 5712 5714 5716 5719
5706 5705 5704 5703 5702 5701 5699 5699 5699 5699 5699 5698 5699 5700 5700 5700 5700 5700 5699 5696 5694 5694 5693 5693 5691 5691 5691 5691 5691 5691 5692 5693 5695 5696 5699 5700 5702 5703 5705 5707 5708 5710 5712
5705 5704 5702 5701 5699 5698 5697 5695 5696 5695 5696 5696 5695 5695 5696 5696 5697 5697 5697 5695 5693 5693 5691 5690 5689 5688 5688 5688 5687 5688 5689 5688 5689 5691 5694 5695 5696 5697 5699 5700 5702 5703 5705
5703 5702 5701 5699 5698 5696 5694 5693 5692 5692 5692 5693 5693 5693 5693 5693 5693 5693 5694 5694 5693 5690 5688 5687 5687 5685 5684 5684 5683 5685 5686 5684 5685 5686 5688 5689 5690 5692 5693 5694 5695 5696 5698
5701 5700 5700 5698 5696 5694 5692 5690 5690 5688 5689 5688 5688 5690 5689 5691 5690 5690 5690 5691 5691 5689 5686 5686 5683 5683 5681 5682 5680 5682 5682 5681 5681 5681 5682 5683 5684 5685 5686 5687 5688 5690 5691
5699 5698 5697 5696 5694 5692 5690 5687 5687 5686 5687 5687 5687 5687 5686 5686 5687 5687 5687 5687 5687 5686 5683 5683 5682 5681 5679 5679 5678 5678 5679 5678 5678 5676 5677 5677 5678 5679 5679 5680 5681 5682 5683
5697 5696 5695 5693 5692 5689 5688 5686 5684 5684 5684 5684 5684 5684 5684 5683 5682 5683 5683 5683 5682 5682 5681 5678 5679 5677 5677 5676 5675 5675 5675 5675 5674 5672 5671 5671 5672 5672 5673 5673 5674 5675 5676
5695 5693 5692 5690 5688 5687 5685 5684 5683 5682 5682 5682 5682 5682 5682 5681 5680 5680 5679 5680 5678 5678 5676 5676 5675 5673 5673 5671 5671 5670 5671 5670 5670 5668 5667 5666 5666 5665 5666 5666 5666 5667 5668
5693 5691 5689 5687 5685 5684 5683 5682 5680 5680 5680 5680 5679 5679 5679 5678 5678 5677 5676 5675 5674 5673 5672 5671 5670 5670 5668 5667 5666 5666 5666 5666 5665 5665 5662 5661 5660 5660 5660 5660 5659 5659 5659
5689 5687 5686 5684 5682 5680 5679 5678 5678 5677 5677 5677 5676 5675 5674 5673 5671 5671 5671 5671 5669 5668 5667 5666 5665 5664 5663 5661 5660 5661 5660 5661 5660 5658 5658 5657 5657 5656 5655 5653 5652 5651 5650
5685 5683 5681 5679 5678 5676 5673 5671 5672 5674 5675 5674 5673 5672 5671 5668 5666 5664 5662 5661 5661 5662 5662 5660 5660 5658 5657 5656 5654 5653 5653 5654 5653 5652 5650 5651 5650 5650 5648 5647 5643 5642 5641
5680 5678 5677 5675 5674 5672 5669 5667 5667 5669 5671 5671 5670 5669 5667 5666 5662 5663 5659 5656 5655 5653 5652 5653 5653 5652 5651 5650 5647 5647 5645 5645 5643 5643 5641 5643 5642 5641 5640 5637 5634 5631 5630
5678 5675 5674 5673 5671 5669 5666 5664 5663 5665 5667 5667 5666 5665 5664 5662 5659 5658 5657 5655 5654 5652 5648 5647 5647 5645 5643 5641 5639 5638 5637 5637 5637 5634 5631 5632 5634 5633 5632 5629 5625 5621 5619
5675 5673 5671 5669 5668 5666 5663 5661 5659 5662 5663 5662 5661 5659 5658 5656 5652 5649 5649 5649 5648 5646 5642 5639 5637 5636 5633 5631 5629 5629 5628 5628 5629 5628 5624 5622 5623 5623 5623 5621 5617 5612 5609
5672 5670 5668 5667 5666 5664 5660 5657 5655 5658 5658 5657 5655 5654 5649 5648 5645 5642 5642 5642 5641 5640 5638 5636 5632 5630 5628 5625 5621 5620 5619 5618 5618 5618 5616 5611 5611 5610 5612 5613 5607 5603 5600